Location: Feigenhofen
(48.4939°N, 10.7793°E)
Time: 05:38:50
(UTC+00:00)

Cosmos 292 Rocket - Pass Details

Date: 26 May 2022
Orbit: 674 x 692 km, 74.0° (Epoch: 24 June)

Event Time Altitude Azimuth Distance (km) Brightness Sun altitude
Exits shadow 01:48:12 15° 193° (SSW) 1,791 5.4 -12.3°
Maximum altitude 01:52:07 75° 110° (ESE) 713 3.9 -12.0°
Drops below altitude 10° 01:56:54 10° 26° (NNE) 2,132 7.7 -11.5°
Sets 01:59:12 0° 25° (NNE) 3,049 8.9 -11.2°
